Weather History for Harrisburg, PA

Change the Weather History Date:

Sunday, November 4, 2012

  Actual Average Record
Temperature  
Mean Temperature 43 °F -  
Max Temperature 44 °F 55 °F 78 °F (1994)
Min Temperature 42 °F 37 °F 24 °F (1951)
Degree Days  
Heating Degree Days 22    
Moisture  
Dew Point 28 °F    
Average Humidity 57    
Maximum Humidity 60    
Minimum Humidity 51    
Precipitation  
Precipitation 0.00 in - - ()
Sea Level Pressure  
Sea Level Pressure 30.06 in    
Wind  
Wind Speed 7 mph (NNW)    
Max Wind Speed 10 mph    
Max Gust Speed -    
Visibility 10 miles    
Events      
Averages and records for this station are not official NWS values.
T = Trace of Precipitation, MM = Missing Value Source: NWS Daily Summary

Daily Weather History Graph

Daily Weather History Graph

Search for Another Location

Airport:

Trip Planner

Search our weather history database for the weather conditions in past years. The results will help you decide how hot, cold, wet, or windy it might be!

Date:

Astronomy

Nov. 04, 2012 Rise Set
Actual Time 6:40 AM EST 5:00 PM EST
Civil Twilight 6:12 AM EST 5:29 PM EST
Nautical Twilight 5:40 AM EST 6:01 PM EST
Astronomical Twilight 5:08 AM EST 6:32 PM EST
Moon 9:36 PM EST (11/4) 11:23 AM EST (11/4)
Length of Visible Light 11h 16m
Length of Day
10h 19m
Waning Gibbous, 72% of the Moon is Illuminated
Nov 4
Waning Gibbous
Nov 6
Last Quarter
Nov 13
New
Nov 20
First Quarter
Nov 28
Full

Hourly Weather History & Observations

Time (EST) Temp. Windchill Dew Point Humidity Pressure Visibility Wind Dir Wind Speed Gust Speed Precip Events Conditions
12:56 AM 44.1 °F 41.5 °F 28.0 °F 53% 30.07 in 10.0 mi Variable 4.6 mph - N/A   Overcast
1:56 AM 44.1 °F 39.5 °F 28.0 °F 53% 30.06 in 10.0 mi NW 8.1 mph - N/A   Overcast
1:56 AM 43.0 °F 38.8 °F 28.9 °F 58% 30.06 in 10.0 mi WNW 6.9 mph - N/A   Overcast
2:56 AM 43.0 °F 37.7 °F 28.9 °F 58% 30.04 in 10.0 mi WNW 9.2 mph - N/A   Overcast
3:56 AM 42.1 °F 37.7 °F 28.9 °F 60% 30.05 in 10.0 mi NW 6.9 mph - N/A   Overcast
4:56 AM 42.1 °F 37.1 °F 28.9 °F 60% 30.05 in 10.0 mi WNW 8.1 mph - N/A   Overcast
5:56 AM 42.1 °F 36.6 °F 28.0 °F 58% 30.05 in 10.0 mi NW 9.2 mph - N/A   Overcast
6:56 AM 42.1 °F 37.1 °F 28.9 °F 60% 30.06 in 10.0 mi WNW 8.1 mph - N/A   Overcast
7:56 AM 42.1 °F 36.1 °F 28.9 °F 60% 30.08 in 10.0 mi NW 10.4 mph - N/A   Overcast
8:56 AM 43.0 °F 38.2 °F 28.0 °F 56% 30.07 in 10.0 mi North 8.1 mph - N/A   Overcast
9:56 AM 42.1 °F 37.7 °F 28.0 °F 58% 30.08 in 10.0 mi NNW 6.9 mph - N/A   Overcast
10:56 AM 42.1 °F 37.7 °F 28.0 °F 58% 30.08 in 10.0 mi NNW 6.9 mph - N/A   Overcast
11:56 AM 43.0 °F 37.2 °F 28.0 °F 56% 30.06 in 10.0 mi North 10.4 mph - N/A   Overcast
12:56 PM 43.0 °F 38.8 °F 28.0 °F 56% 30.06 in 10.0 mi NNW 6.9 mph - N/A   Overcast
1:56 PM 43.0 °F 38.8 °F 27.0 °F 53% 30.05 in 10.0 mi NNW 6.9 mph - N/A   Overcast
2:56 PM 44.1 °F 38.6 °F 27.0 °F 51% 30.05 in 10.0 mi NNW 10.4 mph - N/A   Mostly Cloudy
3:56 PM 43.0 °F 37.2 °F 27.0 °F 53% 30.05 in 10.0 mi NW 10.4 mph - N/A   Overcast
4:56 PM 43.0 °F 38.8 °F 27.0 °F 53% 30.04 in 10.0 mi NNW 6.9 mph - N/A   Overcast
5:56 PM 43.0 °F 39.5 °F 28.0 °F 56% 30.05 in 10.0 mi NNW 5.8 mph - N/A   Overcast
6:56 PM 43.0 °F 39.5 °F 28.9 °F 58% 30.06 in 10.0 mi NW 5.8 mph - N/A   Overcast
7:56 PM 43.0 °F 38.8 °F 28.0 °F 56% 30.06 in 10.0 mi NNW 6.9 mph - N/A   Overcast
8:56 PM 42.1 °F 38.4 °F 28.0 °F 58% 30.07 in 10.0 mi North 5.8 mph - N/A   Overcast
9:56 PM 42.1 °F 37.7 °F 28.0 °F 58% 30.06 in 10.0 mi North 6.9 mph - N/A   Overcast
10:56 PM 42.1 °F 38.4 °F 28.0 °F 58% 30.06 in 10.0 mi North 5.8 mph - N/A   Overcast